Location: Llanerchymedd
(53.3333°N, 4.3833°W)
Time: 01:18:30
(UTC+00:00)

Daily predictions for brighter satellites

Satellite Brightness Start Highest point End
(mag) Time Altitude Azimuth Time Altitude Azimuth Time Altitude Azimuth
Cosmos 2263 Rocket 4.0 04:12:52 23° SE 04:14:37 27° ESE 04:19:12 10° NE
Cosmos 2034 Rocket 4.3 04:29:07 62° NE 04:29:07 62° NE 04:34:41 10° NNE
ATLAS CENTAUR R/B 3.8 04:36:18 20° NE 04:36:18 20° NE 04:38:13 10° ENE
Cosmos 2297 Rocket 3.9 04:39:41 23° NNE 04:39:41 23° NNE 04:41:58 10° NNE
Cosmos 2227 Rocket 3.8 04:44:29 24° N 04:44:29 24° N 04:46:58 10° NNE
Cosmos 1092 Rocket 4.0 04:43:00 75° ENE 04:43:05 75° ENE 04:49:13 10° SSE
Meteor 1-18 Rocket 4.4 04:54:06 59° NNE 04:54:54 67° ENE 05:00:27 10° SSE
ALOS 4.3 04:53:28 10° NE 04:57:25 26° E 05:01:22 10° SSE
Cosmos 1943 4.2 05:01:28 34° S 05:01:28 34° S 05:04:37 10° SSE
Cosmos 1607 4.4 05:02:50 45° N 05:02:50 45° N 05:07:57 10° NE
COSMO-SKYMED 1 3.6 05:03:38 10° SSE 05:06:31 41° SE 05:06:31 41° SE
ATLAS 5 CENTAUR R/B 3.0 05:10:50 32° NNE 05:10:50 32° NNE 05:14:24 10° NE
Cosmos 2082 Rocket 4.2 05:08:13 15° N 05:10:21 18° NNE 05:14:09 10° ENE
Cosmos 724 4.2 05:13:55 73° NW 05:14:01 73° NW 05:19:57 10° NE
Cosmos 2221 Rocket 4.2 05:13:26 49° NE 05:14:05 55° ENE 05:18:25 10° SSE
CZ-2C R/B 4.1 05:11:42 10° NNE 05:13:04 19° N 05:13:04 19° N
Cosmos 1428 Rocket 4.5 05:13:19 10° N 05:19:41 87° E 05:26:01 10° S
Cosmos 1932 4.4 05:19:20 55° SW 05:20:54 85° NW 05:27:27 10° NE
Okean O Rocket 3.4 05:22:13 10° NNE 05:26:10 31° E 05:30:07 10° SSE
Meteor 1-25 Rocket 4.1 05:21:09 10° S 05:26:48 88° ESE 05:32:34 10° NNE
Cosmos 1340 3.5 05:24:35 10° S 05:28:13 49° E 05:31:54 10° NNE
Cosmos 1346 Rocket 3.7 05:24:48 10° S 05:28:31 46° E 05:32:17 10° NNE
Cosmos 1869 Rocket 3.5 05:29:32 10° S 05:33:52 84° E 05:38:16 10° NNE
Cosmos 1515 4.0 05:35:06 63° NE 05:35:21 65° ENE 05:39:09 10° SSE
Cosmos 2026 Rocket 3.9 05:35:00 20° NNW 05:39:19 65° W 05:45:30 10° S
Meteor 2-4 Rocket 3.7 05:36:25 14° N 05:41:14 76° ENE 05:46:38 10° SSE
Meteor 1-14 Rocket 4.4 05:35:41 10° S 05:41:39 84° ESE 05:47:41 10° NNE
Geosat 4.0 05:37:46 10° SSE 05:42:43 56° WSW 05:43:10 54° W
Cosmos 2056 Rocket 4.2 05:44:08 36° NNW 05:44:08 36° NNW 05:47:56 10° NNE
Cosmos 1674 Rocket 4.4 05:42:56 13° N 05:46:39 48° ENE 05:50:50 10° SSE
Meteor 1-19 Rocket 4.1 05:44:21 29° NNW 05:47:12 68° W 05:52:47 10° S
SWAS 4.3 05:52:55 45° SW 05:54:13 79° NW 05:58:35 10° NNE
NOSS 3-3 (A) 4.5 05:50:59 29° NW 05:55:12 85° NE 06:03:21 10° SE
NOSS 3-3 (C) 4.4 05:51:06 29° NW 05:55:17 85° NE 06:03:27 10° SE
ADEOS Rocket 3.8 05:49:09 10° SE 05:55:34 53° ENE 06:01:24 10° N
Cosmos 2279 Rocket 4.0 05:49:44 10° S 05:55:56 83° E 06:02:13 10° NNE
SKYMED 2 4.2 05:52:01 10° S 05:55:10 37° SW 05:55:10 37° SW
GEOS 3 Rocket 4.2 05:52:42 10° S 05:57:23 36° WSW 05:57:52 35° WSW
Cosmos 2263 Rocket 2.1 05:54:41 24° SW 05:58:07 67° NW 06:03:42 10° NNE
Cosmos 1420 Rocket 4.0 05:56:18 35° WSW 05:58:18 56° WNW 06:03:26 10° NNE
Cosmos 1602 4.4 06:02:18 38° NNW 06:02:18 38° NNW 06:04:55 10° N
Cosmos 1378 Rocket 4.3 05:59:53 10° N 06:04:15 53° ENE 06:08:35 10° SSE
CZ-4B DEB 4.1 06:01:43 10° NNE 06:07:17 86° WNW 06:12:51 10° SSW
Cosmos 1634 Rocket 4.0 06:01:56 10° SSW 06:08:01 57° WNW 06:14:07 10° N
Meteor 1-20 Rocket 4.4 06:03:23 10° SW 06:09:03 49° WNW 06:14:43 10° N
USA 234 3.3 06:04:47 10° ENE 06:11:21 78° SSE 06:17:40 11° WSW
FENGYUN 3A 3.6 06:06:24 10° NNE 06:11:50 85° WNW 06:17:13 10° SSW
Cosmos 1833 Rocket 3.9 06:08:02 13° NNW 06:12:34 37° NE 06:17:48 10° ESE
SJ-12 3.9 06:09:43 10° N 06:13:48 59° WNW 06:17:50 10° SSW
ATLAS CENTAUR R/B 1.4 06:12:30 34° NW 06:14:16 80° NE 06:18:17 10° SE
SL-24 R/B 3.9 06:11:25 10° S 06:15:41 74° WSW 06:19:00 17° NNW
Cosmos 332 Rocket 4.4 06:10:59 10° S 06:15:48 59° ESE 06:20:38 10° NNE
Cosmos 1484 Rocket 3.3 06:12:46 10° N 06:16:05 38° NW 06:16:05 38° NW
METEOR-M 4.0 06:16:17 10° NNE 06:21:38 71° WNW 06:26:57 10° SSW
Cosmos 2297 Rocket 3.8 06:21:30 17° NNW 06:22:11 17° NNW 06:25:49 10° NNE
SMAP 4.3 06:19:16 10° NNE 06:23:44 44° E 06:28:11 10° S
Cosmos 1655 Rocket 4.0 06:19:50 10° NNW 06:25:57 60° W 06:32:02 10° S
COSMOS 2406 3.4 06:22:10 15° NNW 06:26:59 70° NE 06:32:39 10° SE
Cosmos 2227 Rocket 3.8 06:26:19 16° NNW 06:27:10 17° NNW 06:30:49 10° NNE
Okean 3 3.9 06:25:53 29° NW 06:27:21 39° W 06:31:16 10° SSW
Cosmos 1452 Rocket 3.8 06:24:24 11° SW 06:29:20 43° NW 06:34:25 10° NNE
Cosmos 1844 Rocket 3.2 06:24:23 10° SSW 06:29:52 61° ESE 06:35:23 10° NE
CZ-4B R/B 3.2 06:25:54 10° NNE 06:31:32 83° WNW 06:37:12 10° SSW
Meteor 1-13 Rocket 4.2 06:26:16 10° NNW 06:31:44 62° W 06:37:13 10° S
Cosmos 44 3.1 06:27:04 10° SW 06:31:45 88° SE 06:36:15 10° NE
Radarsat Rocket 4.5 06:26:11 10° NNE 06:32:23 72° ESE 06:39:17 10° SSW
Cosmos 2292 Rocket 4.5 06:26:22 10° N 06:33:35 87° E 06:38:56 10° S
Timation 1 Rocket 4.4 06:28:30 10° SW 06:34:19 53° NW 06:40:12 10° NNE
ALOS 2.4 06:30:34 10° N 06:35:06 49° WNW 06:39:36 10° SW
Cosmos 371 Rocket 3.2 06:31:23 10° SSW 06:36:15 83° WNW 06:41:11 10° NNE
Cosmos 1908 Rocket 4.4 06:33:44 10° S 06:38:05 54° E 06:42:27 10° NNE
NOAA 6 4.0 06:36:33 10° NNE 06:41:39 66° WNW 06:46:43 10° SSW
Cosmos 1503 Rocket 4.4 06:36:46 10° NNW 06:42:04 66° ENE 06:47:23 10° SE
Cosmos 389 Rocket 4.4 06:39:12 10° N 06:42:20 29° ENE 06:45:24 10° SE
Cosmos 1536 2.9 06:39:20 10° S 06:43:24 83° E 06:47:29 10° NNE
COSMO-SKYMED 1 4.2 06:41:43 10° SW 06:43:44 16° WSW 06:43:44 16° WSW
H-2A R/B 2.9 06:42:28 10° NNE 06:46:14 73° ESE 06:50:00 10° S
Cosmos 968 Rocket 3.6 06:41:27 10° NNW 06:46:39 75° ENE 06:51:46 10° SSE
IRS-1C Rocket 4.4 06:45:00 10° NNE 06:50:17 71° ESE 06:55:31 10° S
Meteor 1-23 Rocket 4.2 06:45:40 10° NNW 06:51:29 76° W 06:57:13 10° S
Cosmos 405 3.8 06:50:53 20° NW 06:52:33 30° W 06:55:41 10° SSW
CZ-2C R/B 4.1 06:51:28 10° NNW 06:52:26 12° NNW 06:52:26 12° NNW
Cosmos 1354 Rocket 4.3 06:48:52 10° NNW 06:54:12 73° ENE 06:59:31 10° SSE
CZ-2C R/B 4.1 06:50:10 10° SE 06:54:51 34° ENE 06:59:29 10° N
ATLAS 5 CENTAUR R/B 3.2 06:52:22 16° NW 06:55:25 28° N 07:00:13 10° ENE
Cosmos 2082 Rocket 3.0 06:50:23 10° NNW 06:55:53 48° NE 07:01:18 10° ESE
Helios 1A Rocket 3.3 06:55:18 10° N 06:59:06 40° WNW 07:02:53 10° SW
Cosmos 1733 Rocket 3.3 06:55:06 10° SW 06:59:14 44° WNW 07:03:26 10° N
Okean O Rocket 2.1 06:58:32 10° N 07:02:36 38° WNW 07:06:41 10° SW
CORIOLIS 4.5 06:57:23 10° NNE 07:02:50 73° ESE 07:08:12 10° S
Cosmos 1340 4.0 07:01:24 10° WSW 07:04:08 19° WNW 07:06:54 10° NNW
Cosmos 1346 Rocket 4.0 07:02:09 10° WSW 07:05:09 21° WNW 07:08:10 10° NNW
Meteor 1-11 Rocket 3.8 06:59:56 10° SSW 07:05:42 66° WNW 07:11:38 10° N
Okean 2 3.9 07:01:38 10° N 07:05:43 62° ENE 07:09:45 10° SSE
NOSS 3-2 (A) 3.9 07:00:26 10° SSW 07:06:16 66° SE 07:12:57 10° NE
Cosmos 2266 Rocket 4.3 07:02:58 10° NNW 07:08:48 44° W 07:14:31 10° SSW
Cosmos 839 Rocket 4.3 07:05:21 11° NW 07:11:35 88° SW 07:19:13 10° SE
Cosmos 1331 Rocket 4.1 07:07:14 10° SW 07:12:16 52° WNW 07:17:23 10° NNE
Cosmos 1500 3.9 07:09:38 10° SW 07:13:06 32° WNW 07:16:35 10° N
USA 238 DEB 3.9 07:10:48 10° SW 07:17:31 82° SE 07:24:33 10° NE
USA 238 3.9 07:10:55 10° SW 07:17:38 81° SE 07:24:39 10° NE
BREEZE-M DEB (TANK) 3.1 07:14:09 10° W 07:19:15 46° S 07:21:36 10° ESE
Cosmos 44 Rocket 3.9 07:15:04 10° SSW 07:19:52 61° SE 07:24:34 10° NE
SL-23 DEB 4.0 07:18:26 10° WSW 07:21:32 59° SSE 07:25:29 10° E
CENTAUR R/B 3.7 07:17:28 10° SSW 07:23:19 49° ESE 07:30:10 10° NE
YAOGAN 6 2.9 07:21:54 10° NNE 07:25:37 74° ESE 07:29:19 10° S
Okean-O 2.7 07:21:10 10° NNE 07:25:39 88° ESE 07:30:04 10° SSW
Cosmos 1975 Rocket 3.1 07:21:26 10° NNW 07:25:51 66° W 07:30:17 10° S
Cosmos 1745 Rocket 4.4 07:20:21 10° N 07:26:36 69° ENE 07:32:43 10° SSE
Cosmos 1110 Rocket 4.4 07:22:35 10° WSW 07:27:25 39° NW 07:32:17 10° NNE
Cosmos 1025 Rocket 4.0 07:28:15 10° N 07:32:30 48° ENE 07:36:41 10° SSE
YAOGAN 1 3.8 07:28:31 10° NNE 07:32:44 47° E 07:36:54 10° S
Cosmos 1782 Rocket 3.5 07:28:41 10° SSW 07:33:08 80° WNW 07:37:33 10° N
Cosmos 304 Rocket 3.8 07:30:01 10° SW 07:34:44 57° WNW 07:39:29 10° NNE
Cosmos 1975 3.4 07:32:30 10° S 07:36:26 62° E 07:40:24 10° NNE
Cosmos 2278 Rocket 3.2 07:32:50 10° S 07:38:20 53° ESE 07:43:51 10° NE
Cosmos 1441 Rocket 3.2 07:35:21 10° SSW 07:39:18 74° WNW 07:43:15 10° N
ADEOS Rocket 3.7 07:35:09 10° SSW 07:41:18 37° W 07:46:56 10° NNW
Cosmos 2263 Rocket 3.4 07:38:52 10° W 07:43:06 22° NNW 07:47:22 10° NNE
Okean 2 Rocket 3.7 07:39:20 10° S 07:43:40 64° E 07:48:04 10° NNE
Sich 1 Rocket 3.6 07:42:08 10° SSW 07:46:38 77° WNW 07:51:07 10° N
Cosmos 2285 Rocket 4.1 07:41:58 10° NNW 07:48:21 86° WSW 07:54:40 10° SSE
